Location: *
(44.3925°N, 5.4708°E)
Time: 11:47:08
(UTC+00:00)

NOSS 3-4 (C) - Pass Details

Date: 18 September 2019
Orbit: 913 x 1299 km, 63.4° (Epoch: 21 September)

Event Time Altitude Azimuth Distance (km) Brightness Sun altitude
Rises 17:59:02 0° 323° (NW) 3,791 7.3 -3.5°
Reaches altitude 10° 18:01:46 10° 332° (NNW) 2,892 6.5 -4.0°
Maximum altitude 18:08:13 40° 40° (NE) 1,620 4.5 -5.2°
Drops below altitude 10° 18:15:12 10° 108° (ESE) 3,145 5.5 -6.4°
Enters shadow 18:16:10 - 111° (ESE) 3,461 5.7 -6.6°
